Regional Weather Roundup
Issued by NWS

Home | Current Version | Previous Version | Graphics & Text | Print | Product List | Glossary On
Versions: 1 2 3 4 5 6 7 8 9 10 11 12 13 14 15 16 17 18 19 20 21 22 23 24 25 26 27 28 29 30 31 32 33 34 35 36 37 38 39 40 41 42 43 44 45 46 47 48 49 50
000
ASUS43 KDMX 240607
RWRIA

WEATHER ROUNDUP FOR IOWA
NATIONAL WEATHER SERVICE DES MOINES IA
1200 AM CST WED DEC 24 2014

NOTE: "FAIR" INDICATES FEW OR NO CLOUDS BELOW 12,000 FEET WITH NO
SIGNIFICANT WEATHER AND/OR OBSTRUCTIONS TO VISIBILITY.

* - THESE STATIONS ARE NOT NWS STATIONS...THUS NOT UNDER NWS
QUALITY CONTROL.  THEY ALSO DO NOT REPORT WEATHER SUCH
AS PRECIPITATION OR FOG.

IAZ001>003-012>014-020>022-031>034-043>046-240700-
   NORTHWEST IOWA

CITY           SKY/WX    TMP DP  RH WIND       PRES   REMARKS
CARROLL *      LGT SNOW  34  34 100 NW15      29.85F WCI  24
CHEROKEE *     CLOUDY    33  33  99 N15G23    29.89F WCI  23
DENISON *      LGT SNOW  34  34 100 N15       29.86F WCI  24
LE MARS *      LGT SNOW  34  34 100 N16G23    29.94F WCI  23
ORANGE CITY *  LGT RAIN  34  32  93 N13       29.92F WCI  25
SHELDON *      CLOUDY    34  34 100 NW17G24   29.90F WCI  23
SIOUX CITY     CLOUDY    34  32  92 NW21      29.93F FOG     WCI  22
6HR MIN TEMP:  34; 6HR MAX TEMP:  38;

SPENCER        CLOUDY    34  31  88 N20G25    29.88F WCI  23
6HR MIN TEMP:  34; 6HR MAX TEMP:  35; 6HR PCP:  0.01;

STORM LAKE *   MIX PCPN  34  32  93 N21       29.87S WCI  22
$$

IAZ055>058-069>071-079>083-090>094-240700-
   SOUTHWEST IOWA

CITY           SKY/WX    TMP DP  RH WIND       PRES   REMARKS
ATLANTIC *     CLOUDY    34  34 100 N15       29.85F WCI  24
AUDUBON *      MIX PCPN  34  28  80 N14G22    29.85F WCI  24
CLARINDA *     LGT RAIN  34  34 100 N14       29.86F WCI  24
COUNCIL BLFS * LGT SNOW  34  34 100 NW17      29.87F WCI  23
CRESTON *      LGT SNOW  34  34 100 NW15      29.80F WCI  24
HARLAN  *      LGT RAIN  34  34 100 N17       29.90F WCI  23
LAMONI         FLURRIES  33  32  96 N14       29.78F WCI  23
6HR MIN TEMP:  33; 6HR MAX TEMP:  36; 6HR PCP: TRACE;

RED OAK *      CLOUDY    36  34  93 N15G22    29.86F WCI  26
SHENANDOAH *   CLOUDY    36  36 100 NW13G20   29.88S WCI  27
$$

IAZ047>049-059>061-072>074-084-240700-
   CENTRAL IOWA

CITY           SKY/WX    TMP DP  RH WIND       PRES   REMARKS
AMES           LGT SNOW  33  31  92 N13       29.79F FOG     WCI  24
6HR MIN TEMP:  32; 6HR MAX TEMP:  33; 6HR PCP:  0.20;

ANKENY *       LGT SNOW  34  34 100 NW13      29.78F WCI  25
CHARITON *     CLOUDY    34  32  93 NW13      29.76F WCI  25
DES MOINES     LGT SNOW  34  32  92 NW12      29.79F VSB 1   WCI  25
6HR MIN TEMP:  34; 6HR MAX TEMP:  36; 6HR PCP:  0.18;

GRINNELL*      LGT SNOW  32  32 100 NW9       29.76F WCI  24
KNOXVILLE *    MIX PCPN  34  32  93 NW10G17   29.75F WCI  26
MARSHALLTOWN   LGT SNOW  32  32 100 NW10      29.76F FOG     WCI  24
6HR MIN TEMP:  32; 6HR MAX TEMP:  33; 6HR PCP:  0.17;

PELLA *        CLOUDY    34  33  96 NW9       29.78F FOG     WCI  26
PERRY *        LGT SNOW  34  34 100 NW15      29.82F WCI  24
$$

IAZ004>006-015-016-023>025-035-036-240700-
   NORTH CENTRAL IOWA

CITY           SKY/WX    TMP DP  RH WIND       PRES   REMARKS
ALGONA *       CLOUDY    34  34 100 N17G24    29.83F WCI  23
CLARION *      CLOUDY    34  34 100 N15       29.81S WCI  24
ESTHERVILLE    CLOUDY    32  32 100 N18       29.86S WCI  20
6HR MIN TEMP:  32; 6HR MAX TEMP:  34;

FORT DODGE *   CLOUDY    34  30  86 N7        29.83F WCI  28
MASON CITY     CLOUDY    34  31  88 N16       29.81S WCI  24
6HR MIN TEMP:  33; 6HR MAX TEMP:  34;

FOREST CITY *  CLOUDY    34  32  93 N14G20    29.80F WCI  24
IOWA FALLS *   MIX PCPN  34  32  93 N10       29.79F WCI  26
$$

IAZ007>011-017>019-026>030-037>042-050>054-066-240700-
   NORTHEAST IOWA

CITY           SKY/WX    TMP DP  RH WIND       PRES   REMARKS
CEDAR RAPIDS   CLOUDY    34  34 100 NW8       29.73F FOG     WCI  27
6HR MIN TEMP:  34; 6HR MAX TEMP:  36; 6HR PCP: TRACE;

CHARLES CITY * CLOUDY    34  34 100 N12       29.77F WCI  25
CLINTON *      CLOUDY    36  34  93 NW8       29.74F WCI  29
DECORAH *      CLOUDY    34  34 100 NW9       29.73F FOG     WCI  26
DUBUQUE        CLOUDY    34  34 100 NW5       29.72F FOG     WCI  30
6HR MIN TEMP:  34; 6HR MAX TEMP:  36; 6HR PCP: TRACE;

MONTICELLO *   FOG       34  34 100 NW6       29.73F VSB 1   WCI  29
OELWEIN *      CLOUDY    34  34 100 N9G16     29.74F FOG     WCI  26
WATERLOO       LGT SNOW  32  32 100 NW10      29.75F FOG     WCI  24
6HR MIN TEMP:  32; 6HR MAX TEMP:  34; 6HR PCP:  0.05;

$$

IAZ064-065-067-068-078-240700-
   EAST CENTRAL IOWA

CITY           SKY/WX    TMP DP  RH WIND       PRES   REMARKS
DAVENPORT      CLOUDY    37  35  92 NW7       29.72F WCI  32
6HR MIN TEMP:  37; 6HR MAX TEMP:  39; 6HR PCP: TRACE;

IOWA CITY      CLOUDY    35  34  96 NW7       29.75F WCI  29
6HR MIN TEMP:  35; 6HR MAX TEMP:  38;

MT. PLEASANT * CLOUDY    36  36  99 NW8       29.73F WCI  30
MUSCATINE *    CLOUDY    37  36  93 NW8       29.73F WCI  31
QUAD CITIES    CLOUDY    38  35  89 W6        29.71F WCI  33
6HR MIN TEMP:  38; 6HR MAX TEMP:  40;

$$

IAZ062-063-075>077-085>089-095>099-240700-
   SOUTHEAST IOWA

CITY           SKY/WX    TMP DP  RH WIND       PRES   REMARKS
BURLINGTON     CLOUDY    38  35  89 VRB6      29.73F WCI  33
6HR MIN TEMP:  38; 6HR MAX TEMP:  40;

FAIRFIELD *    CLOUDY    36  34  93 NW9       29.74F WCI  29
FORT MADISON * CLOUDY    39  37  93 NW6       29.74F WCI  35
KEOKUK *       CLOUDY    37  36  93 W8        29.73F WCI  31
OSKALOOSA *    CLOUDY    34  33  95 NW12      29.75F FOG     WCI  25
CENTERVILLE *  CLOUDY    34  34 100 NW10      29.76F WCI  26
OTTUMWA        CLOUDY    35  34  96 NW12      29.75F WCI  27
6HR MIN TEMP:  35; 6HR MAX TEMP:  37; 6HR PCP: TRACE;

WASHINGTON *   CLOUDY    36  36 100 NW9       29.74F WCI  29
$$

ABBREVIATIONS USED IN REMARKS
   TC - TEMPERATURES IN CELSIUS
  WCI - WIND CHILL INDEX
   HX - HEAT INDEX
  VSB - VISIBILITY
$$




USA.gov is the U.S. government's official web portal to all federal, state and local government web resources and services.